Location: Roland
(31.1349°N, 85.4372°W)
Time: 14:02:57
(UTC+00:00)

X-37B - Pass Details

Date: 06 March 2021
Orbit: 380 x 394 km, 45.0° (Epoch: 07 April)

Event Time Altitude Azimuth Distance (km) Brightness Sun altitude
Exits shadow 10:35:01 20° 176° (S) 957 2.5 -19.5°
Drops below altitude 10° 10:36:23 10° 158° (SSE) 1,409 3.6 -19.2°
Sets 10:38:35 0° 147° (SSE) 2,258 4.8 -18.7°
